2017-008AK

Last updated on Tue Feb 28 2017 00:15:03 GMT+0000 (Coordinated Universal Time)

1 41981U 17008AK 17058.89678883 .00001554 00000-0 71964-4 0 9993 2 41981 97.5128 120.5143 0007779 209.9599 150.1189 15.21616857 1880
UTC large
Height (km)
Speed (km/s)
/
Latitude / Longitude
Inclination (degrees)
Orbital Period (minutes)
Azimuth
Elevation
Range (km)
Doppler Factor

Next 0 passes for location: London (51.5072 / 0.1276)

Sorry there are no passes over London.